CDT,Max TemperatureF,Mean TemperatureF,Min TemperatureF,Max Dew PointF,MeanDew PointF,Min DewpointF,Max Humidity, Mean Humidity, Min Humidity, Max Sea Level PressureIn, Mean Sea Level PressureIn, Min Sea Level PressureIn, Max VisibilityMiles, Mean VisibilityMiles, Min VisibilityMiles, Max Wind SpeedMPH, Mean Wind SpeedMPH, Max Gust SpeedMPH,PrecipitationIn, CloudCover, Events, WindDirDegrees
2013-6-1,68,64,59,63,56,52,94,77,64,29.90,29.74,29.64,10,10,8,24,11,32,0.00,4,,258
2013-6-2,64,58,51,52,46,43,88,66,45,30.07,30.02,29.91,10,9,0,20,13,28,0.00,6,,328
2013-6-3,69,58,46,52,48,43,93,66,46,30.09,30.03,29.96,10,8,1,14,6,20,0.00,0,,159
2013-6-4,68,62,55,61,55,50,94,82,72,30.09,30.01,29.98,10,9,3,17,10,24,0.21,6,Rain,127
2013-6-5,66,62,59,63,59,55,100,89,73,30.00,29.97,29.92,10,8,0,10,6,,0.26,7,Rain,225
2013-6-6,69,61,53,57,53,50,94,73,53,29.97,29.93,29.90,10,10,10,17,8,22,0.00,3,,326
2013-6-7,68,60,51,54,52,48,100,75,49,30.01,29.97,29.93,10,9,2,10,6,15,0.00,4,,336
2013-6-8,73,62,51,57,54,50,94,70,53,29.95,29.89,29.80,10,10,9,16,7,24,0.00,2,,159
2013-6-9,73,66,59,64,60,54,100,85,60,29.81,29.76,29.71,10,9,2,18,11,26,0.26,6,Rain,207
2013-6-10,75,67,59,64,61,59,100,85,61,29.91,29.84,29.76,10,5,0,10,5,15,0.00,4,Fog,278
2013-6-11,86,75,64,73,69,61,88,76,62,29.91,29.83,29.76,10,10,7,14,5,20,0.00,1,,123
2013-6-12,91,78,66,72,68,59,88,72,52,29.85,29.77,29.66,10,10,5,30,11,40,0.05,3,Rain,215
2013-6-13,82,72,62,61,58,54,82,62,39,30.06,30.00,29.86,10,10,5,23,12,33,0.00,1,,330
2013-6-14,75,70,64,64,60,57,94,75,61,30.10,30.01,29.85,10,9,2,23,7,39,0.28,4,Rain,129
2013-6-15,82,73,64,73,66,63,94,87,66,30.04,29.94,29.86,10,9,1,25,8,34,0.56,5,Rain,176
2013-6-16,84,73,62,68,63,55,100,72,39,29.98,29.96,29.93,10,9,2,10,6,16,0.00,2,Rain,272
2013-6-17,86,75,64,66,60,54,94,63,33,29.98,29.95,29.90,10,10,10,15,6,20,0.00,0,,285
2013-6-18,82,71,60,63,58,54,82,61,39,30.02,29.99,29.95,10,10,10,12,7,16,0.00,1,,334
2013-6-19,82,72,62,64,62,59,88,70,48,30.08,30.04,30.00,10,10,10,13,7,17,0.00,0,,140
2013-6-20,86,76,66,68,64,61,83,65,48,30.05,30.01,29.94,10,10,6,22,10,29,0.00,1,,156
2013-6-21,89,82,75,75,70,66,83,71,62,30.02,29.94,29.88,10,10,4,24,13,32,0.00,1,,176
2013-6-22,89,83,77,73,72,70,83,70,55,30.00,29.92,29.86,10,9,8,18,11,26,0.00,2,,194
2013-6-23,80,72,64,72,67,63,94,81,69,30.02,29.91,29.86,10,9,1,21,11,36,0.37,2,Rain,172
2013-6-24,80,73,66,72,68,64,94,88,74,29.98,29.91,29.83,10,9,0,21,7,47,2.24,3,Rain,134
2013-6-25,86,77,68,73,71,66,94,81,55,29.86,29.80,29.74,10,10,8,13,8,18,0.00,1,,167
2013-6-26,89,81,73,77,70,64,88,72,51,29.85,29.75,29.68,10,10,6,18,9,28,0.00,3,,245
2013-6-27,84,75,66,70,67,63,94,72,58,29.95,29.90,29.86,10,10,10,15,8,22,0.00,0,,284
2013-6-28,84,76,68,64,58,52,83,56,33,29.89,29.83,29.77,10,10,9,26,12,40,0.00,1,,314
2013-6-29,73,70,66,64,59,57,88,69,60,29.90,29.80,29.76,10,10,2,24,13,31,0.06,3,Rain,338
2013-6-30,77,70,62,57,55,52,77,61,41,30.07,29.99,29.90,10,10,9,14,9,24,0.00,2,,12